,

(GMT )
Banff

Weather History for CWZG - February, 2013

Change the Weather History Date:

Tuesday, February 12, 2013

  Actual Average Record
Temperature  
Mean Temperature 32 °F -  
Max Temperature 36 °F - - ()
Min Temperature 28 °F - - ()
Degree Days  
Heating Degree Days 33    
Moisture  
Dew Point 18 °F    
Average Humidity 57    
Maximum Humidity 74    
Minimum Humidity 43    
Precipitation  
Precipitation 0.13 in - - ()
Sea Level Pressure  
Sea Level Pressure 29.95 in    
Wind  
Wind Speed 7 mph ()    
Max Wind Speed 14 mph    
Max Gust Speed 28 mph    
T = Trace of Precipitation, MM = Missing Value Source: Averaged Metar Reports

Daily Weather History Graph

Daily Weather History Graph

Search for Another Location

Airport or City:

Trip Planner

Search our weather history database for the weather conditions in past years. The results will help you decide how hot, cold, wet, or windy it might be!

Date:

Astronomy

Feb. 12, 2013 Rise Set
Actual Time 8:00 AM MST 5:53 PM MST
Civil Twilight 7:25 AM MST 6:27 PM MST
Nautical Twilight 6:46 AM MST 7:06 PM MST
Astronomical Twilight 6:08 AM MST 7:45 PM MST
Moon 8:35 AM MST (2/12) 9:27 PM MST (2/12)
Length of Visible Light 11h 02m
Length of Day
9h 53m
Waxing Crescent, 8% of the Moon is Illuminated
Feb 12
Waxing Crescent
Feb 17
First Quarter
Feb 25
Full
Mar 4
Last Quarter
Mar 11
New

Hourly Weather History & Observations

Time (MST) Temp. Windchill Dew Point Humidity Pressure Visibility Wind Dir Wind Speed Gust Speed Precip Events Conditions
12:00 AM 31.5 °F 25.8 °F 12.7 °F 46% 30.01 in - WSW 5.8 mph - N/A   Unknown
1:00 AM 29.8 °F 23.9 °F 14.0 °F 52% 30.00 in - WSW 5.8 mph - N/A   Unknown
2:00 AM 30.2 °F 23.4 °F 15.3 °F 54% 30.01 in - West 6.9 mph - N/A   Unknown
3:00 AM 29.7 °F 22.8 °F 16.2 °F 57% 30.02 in - WSW 6.9 mph - N/A   Unknown
4:00 AM 29.3 °F 23.2 °F 17.1 °F 60% 30.03 in - WSW 5.8 mph - N/A   Unknown
5:00 AM 29.7 °F 22.8 °F 18.7 °F 64% 30.04 in - SW 6.9 mph - N/A   Unknown
6:00 AM 28.2 °F 22.0 °F 18.0 °F 65% 30.05 in - WSW 5.8 mph - N/A   Unknown
7:00 AM 28.2 °F 22.0 °F 18.0 °F 65% 30.05 in - WSW 5.8 mph - N/A   Unknown
8:00 AM 28.6 °F 22.4 °F 18.1 °F 65% 30.04 in - WSW 5.8 mph - N/A   Unknown
9:00 AM 29.1 °F 23.0 °F 18.5 °F 65% 30.04 in - SW 5.8 mph - N/A   Unknown
10:00 AM 29.7 °F 22.0 °F 17.8 °F 61% 30.03 in - WSW 8.1 mph - N/A   Unknown
11:00 AM 34.0 °F 26.6 °F 16.0 °F 48% 29.99 in - WSW 9.2 mph - N/A   Unknown
12:00 PM 34.5 °F 27.9 °F 16.9 °F 49% 29.98 in - WSW 8.1 mph 18.4 mph N/A   Unknown
1:00 PM 36.3 °F 29.5 °F 16.0 °F 44% 29.95 in - WSW 9.2 mph 18.4 mph N/A   Unknown
2:00 PM 36.9 °F 28.2 °F 16.2 °F 43% 29.93 in - WSW 13.8 mph 27.6 mph N/A   Unknown
3:00 PM 36.3 °F 28.9 °F 17.6 °F 47% 29.91 in - WSW 10.4 mph 19.6 mph N/A   Unknown
4:00 PM 34.3 °F 25.9 °F 19.8 °F 55% 29.90 in - West 11.5 mph 21.9 mph N/A   Unknown
5:00 PM 33.4 °F 24.8 °F 20.8 °F 60% 29.89 in - WSW 11.5 mph 24.2 mph N/A   Unknown
6:00 PM 33.4 °F 26.6 °F 19.9 °F 58% 29.88 in - WSW 8.1 mph - N/A   Unknown
7:00 PM 33.1 °F 26.1 °F 20.5 °F 60% 29.85 in - West 8.1 mph - N/A   Unknown
8:00 PM 34.0 °F 27.2 °F 19.9 °F 56% 29.82 in - West 8.1 mph 18.4 mph N/A   Unknown
9:00 PM 32.9 °F 25.3 °F 21.9 °F 64% 29.82 in - West 9.2 mph - N/A   Unknown
10:00 PM 31.5 °F 24.9 °F 23.9 °F 74% 29.79 in - West 6.9 mph - N/A   Unknown
11:00 PM 33.6 °F 26.2 °F 21.2 °F 60% 29.77 in - WNW 9.2 mph 18.4 mph N/A   Unknown